Sioux Falls, SD

1:14 PM CDT on August 17, 2017 (GMT -0500)
Foss

Weather History for KFSD - August, 2013

Change the Weather History Date:

Sunday, August 18, 2013

  Actual Average Record
Temperature  
Mean Temperature 71 °F 71 °F  
Max Temperature 80 °F 82 °F 101 °F (1983)
Min Temperature 61 °F 60 °F 44 °F (2002)
Degree Days  
Heating Degree Days 0 1  
Month to date heating degree days 15 5  
Since 1 June heating degree days 103 64  
Since 1 July heating degree days 34 13  
Cooling Degree Days 6 6  
Month to date cooling degree days 49 130  
Year to date cooling degree days 476 557  
Since 1 June cooling degree days 434 521  
Growing Degree Days 20 (Base 50)    
Moisture  
Dew Point 58 °F    
Average Humidity 64    
Maximum Humidity 78    
Minimum Humidity 50    
Precipitation  
Precipitation 0.00 in 0.10 in 1.24 in (1947)
Month to date precipitation 2.44 1.81  
Year to date precipitation 19.63 18.15  
Snow  
Snow 0.00 in 0.00 in 0.00 in ()
Month to date snowfall 0.0 0.0  
Since 1 June snowfall 0.0 0.0  
Since 1 July snowfall 0.0 0.0  
Snow Depth 0.00 in    
Sea Level Pressure  
Sea Level Pressure 30.05 in    
Wind  
Wind Speed 13 mph (South)    
Max Wind Speed 24 mph    
Max Gust Speed 44 mph    
Visibility 10 miles    
Events      
T = Trace of Precipitation, MM = Missing Value Source: NWS Daily Summary

Daily Weather History Graph

Daily Weather History Graph

Search for Another Location

Airport or City:

Trip Planner

Search our weather history database for the weather conditions in past years. The results will help you decide how hot, cold, wet, or windy it might be!

Date:

Astronomy

Aug. 18, 2013 Rise Set
Actual Time 6:35 AM CDT 8:25 PM CDT
Civil Twilight 6:04 AM CDT 8:55 PM CDT
Nautical Twilight 5:27 AM CDT 9:33 PM CDT
Astronomical Twilight 4:46 AM CDT 10:13 PM CDT
Moon 6:34 PM CDT (8/18) 3:43 AM CDT (8/18)
Length of Visible Light 14h 51m
Length of Day
13h 49m
Waxing Gibbous, 92% of the Moon is Illuminated
Aug 18
Waxing Gibbous
Aug 20
Full
Aug 28
Last Quarter
Sep 5
New
Sep 12
First Quarter

Hourly Weather History & Observations

Time (CDT) Temp. Dew Point Humidity Pressure Visibility Wind Dir Wind Speed Gust Speed Precip Events Conditions
12:56 AM 66.0 °F 55.9 °F 70% 30.09 in 10.0 mi South 13.8 mph - N/A   Clear
1:56 AM 64.0 °F 55.9 °F 75% 30.09 in 10.0 mi South 11.5 mph - N/A   Clear
2:56 AM 64.0 °F 55.9 °F 75% 30.09 in 10.0 mi South 11.5 mph - N/A   Scattered Clouds
3:56 AM 62.1 °F 55.9 °F 80% 30.09 in 10.0 mi South 8.1 mph - N/A   Scattered Clouds
4:56 AM 62.1 °F 55.9 °F 80% 30.08 in 10.0 mi South 8.1 mph - N/A   Mostly Cloudy
5:56 AM 62.1 °F 55.0 °F 78% 30.08 in 10.0 mi South 6.9 mph - N/A   Mostly Cloudy
6:56 AM 63.0 °F 55.0 °F 75% 30.09 in 10.0 mi South 8.1 mph - N/A   Mostly Cloudy
7:56 AM 63.0 °F 55.0 °F 75% 30.09 in 10.0 mi South 10.4 mph - N/A   Mostly Cloudy
8:56 AM 66.9 °F 55.9 °F 68% 30.09 in 10.0 mi South 11.5 mph - N/A   Scattered Clouds
9:56 AM 71.1 °F 55.9 °F 59% 30.08 in 10.0 mi South 15.0 mph 24.2 mph N/A   Scattered Clouds
10:56 AM 75.0 °F 55.9 °F 51% 30.07 in 10.0 mi SSW 17.3 mph 28.8 mph N/A   Scattered Clouds
11:56 AM 75.9 °F 57.0 °F 52% 30.06 in 10.0 mi SSW 20.7 mph - N/A   Scattered Clouds
12:56 PM 78.1 °F 59.0 °F 52% 30.05 in 10.0 mi South 16.1 mph 24.2 mph N/A   Scattered Clouds
1:56 PM 77.0 °F 60.1 °F 56% 30.04 in 10.0 mi South 11.5 mph 21.9 mph N/A   Overcast
2:56 PM 79.0 °F 61.0 °F 54% 30.03 in 10.0 mi South 18.4 mph 25.3 mph N/A   Mostly Cloudy
3:56 PM 79.0 °F 61.0 °F 54% 30.01 in 10.0 mi South 19.6 mph 26.5 mph N/A   Mostly Cloudy
4:56 PM 79.0 °F 61.0 °F 54% 30.02 in 10.0 mi South 15.0 mph - N/A   Mostly Cloudy
5:56 PM 77.0 °F 62.1 °F 60% 30.02 in 10.0 mi South 17.3 mph 21.9 mph N/A   Overcast
6:56 PM 75.9 °F 62.1 °F 62% 30.01 in 10.0 mi South 12.7 mph - N/A   Overcast
7:56 PM 73.9 °F 61.0 °F 64% 30.00 in 10.0 mi South 12.7 mph - N/A   Mostly Cloudy
8:56 PM 72.0 °F 62.1 °F 71% 29.99 in 10.0 mi South 13.8 mph - N/A   Overcast
9:56 PM 72.0 °F 61.0 °F 68% 29.99 in 10.0 mi South 16.1 mph 24.2 mph N/A   Overcast
10:56 PM 70.0 °F 60.1 °F 71% 29.98 in 10.0 mi South 13.8 mph - N/A   Overcast
11:56 PM 70.0 °F 60.1 °F 71% 30.01 in 10.0 mi SSW 12.7 mph 17.3 mph N/A   Overcast